Location: Betzi
(47.2343°N, 9.5260°E)
Time: 22:59:04
(UTC+00:00)

NOSS 0 Rocket - Pass Details

Date: 27 May 2022
Orbit: 935 x 954 km, 70.0° (Epoch: 26 June)

Event Time Altitude Azimuth Distance (km) Brightness Sun altitude
Exits shadow 00:45:01 24° 239° (WSW) 1,885 5.1 -18.8°
Maximum altitude 00:48:43 52° 305° (NW) 1,175 4.5 -18.6°
Drops below altitude 10° 00:54:49 10° 22° (NNE) 2,690 7.6 -18.2°
Sets 00:57:27 0° 27° (NNE) 3,637 8.7 -18.0°
